Location: Sankt Anna
(58.3452°N, 16.7040°E)
Time: 02:41:09
(UTC+02:00)

DX 1 - Pass Details

Date: 29 May 2019
Orbit: 620 x 630 km, 98.4° (Epoch: 16 June)

Event Time Altitude Azimuth Distance (km) Brightness Sun altitude
Rises 01:04:48 0° 87° (E) 2,923 ? -10.1°
Reaches altitude 10° 01:09:18 10° 44° (NE) 2,023 ? -10.0°
Maximum altitude 01:09:43 10° 38° (NE) 2,016 ? -10.0°
Drops below altitude 10° 01:10:07 10° 33° (NNE) 2,024 ? -10.0°
Sets 01:14:38 0° 350° (N) 2,939 ? -10.0°
